CAPE
0 0 nan nan nan nan nan nan nan nan nan nan nan nan nan nan nan nan nan 0 0 nan nan nan nan nan nan 0 0 0 0 0 0 0 0 0 2 2 9 7 7 8 8 5 5 3 3 3 3 5 5 6 6 6 7 11 11 16 21 29 29 58 42 54 54 37 27 15 8 8 13 17 13 13 7 6 9 9 15 20 20 18 14 12 12 8
0 0 0 nan nan nan nan nan nan nan nan nan nan nan 0 nan nan nan nan nan nan nan nan nan nan nan nan 0 1 1 1 1 0 0 nan nan 1 1 4 11 11 13 8 7 7 4 3 5 5 4 5 4 3 3 2 3 3 13 25 37 37 59 57 49 49 38 31 17 4 4 3 2 5 5 10 13 17 17 19 22 22 23 20 15 15 13
nan nan 0 nan nan nan nan 0 nan nan 0 nan nan nan 0 nan nan nan nan nan nan nan nan nan nan nan nan nan 2 2 2 1 1 1 nan nan 0 0 1 6 6 11 12 9 9 5 4 6 6 4 5 4 3 3 1 1 1 5 16 28 28 40 41 35 35 23 15 7 1 1 1 0 0 0 4 14 21 21 21 21 21 20 23 21 21 19
nan nan nan 0 0 nan nan nan 0 0 0 0 0 0 0 0 0 0 nan nan nan nan nan nan nan nan nan 0 1 1 2 2 1 1 0 nan nan nan 0 2 2 11 13 8 8 7 6 6 6 4 2 2 1 1 0 nan nan nan 3 8 8 13 14 11 11 6 3 1 1 1 0 0 0 0 7 14 18 18 16 15 15 19 24 25 25 21
nan nan nan 0 0 0 nan 0 0 0 0 0 0 0 nan nan 0 0 0 nan nan nan nan nan nan 0 nan 0 1 1 1 2 2 2 1 0 0 0 1 2 2 10 13 13 13 11 7 4 4 3 3 1 0 0 nan nan nan nan nan 0 0 1 2 2 2 2 0 0 1 1 1 2 5 5 10 15 19 19 21 21 21 21 20 23 23 23
nan nan nan 0 0 0 0 0 nan nan nan 0 nan nan nan nan 0 0 nan nan nan nan nan nan nan nan nan 0 1 1 1 2 2 2 2 1 0 0 1 1 1 11 14 11 11 8 7 6 6 4 3 1 0 0 nan nan nan nan nan 0 0 0 0 0 0 0 0 0 1 1 1 3 6 6 11 13 17 17 20 20 20 18 16 18 18 18
nan nan 0 0 0 0 nan nan nan nan nan nan nan nan 0 nan nan nan nan nan nan nan nan nan nan 0 0 nan nan nan 1 1 2 2 1 1 0 0 1 1 1 2 13 9 9 9 9 7 7 5 4 1 1 1 nan nan nan nan nan 0 0 1 0 1 1 1 1 2 2 2 2 3 3 3 6 9 14 14 17 15 15 13 11 7 7 9
nan nan nan nan nan nan nan nan nan nan nan nan nan nan 0 nan nan nan nan nan nan nan 0 nan nan nan nan nan nan nan nan nan nan nan 0 1 1 1 1 1 1 9 6 4 4 6 9 6 6 2 1 1 0 0 nan nan nan nan nan nan nan 0 nan nan nan nan nan 0 0 0 0 nan nan nan nan 1 1 1 2 6 6 6 4 1 1 0
nan nan nan nan nan nan nan nan 0 0 nan 0 0 0 nan nan nan nan nan nan nan nan nan nan nan nan nan nan nan nan nan nan 0 0 0 0 1 1 1 1 1 6 4 3 3 5 9 3 3 2 1 0 nan nan nan nan nan nan nan nan nan nan nan nan nan nan nan nan nan nan nan nan nan nan nan nan nan nan nan nan nan 1 3 2 2 3
nan nan nan nan nan nan nan nan nan nan 0 0 0 0 nan nan nan nan nan nan nan nan nan nan nan nan nan nan nan nan nan nan 0 0 1 nan 0 0 1 0 0 8 2 4 4 6 7 2 2 2 1 nan nan nan nan nan nan nan nan nan nan nan nan nan nan nan nan nan nan nan nan nan nan nan nan nan nan nan nan nan nan nan nan nan nan 0
nan nan nan nan nan nan nan nan nan nan nan nan nan nan nan 0 nan nan nan nan nan nan nan nan nan nan 0 nan nan nan nan nan nan nan nan nan nan nan 0 nan nan nan 1 0 0 4 1 1 1 1 nan nan nan nan nan nan nan nan nan nan nan nan nan nan nan nan nan nan nan nan nan nan nan nan nan nan nan nan nan nan nan nan nan nan nan nan
nan nan nan nan nan nan nan nan nan nan nan nan nan nan nan nan nan nan nan nan nan nan nan nan nan nan nan nan nan nan nan nan nan nan nan nan nan nan 0 nan nan nan nan 1 1 0 1 0 0 nan nan nan nan nan nan nan nan nan nan nan nan nan 0 nan nan nan nan nan nan nan nan nan nan nan nan nan nan nan nan nan nan nan nan nan nan nan
nan nan nan nan nan nan nan nan nan nan nan nan nan nan nan nan nan nan nan nan nan nan nan nan nan 0 nan nan nan nan nan nan nan nan nan nan nan nan nan nan nan nan nan nan nan nan 2 1 1 nan nan nan nan nan nan nan nan nan nan 0 0 nan nan nan nan nan nan nan nan nan nan nan nan nan nan nan nan nan nan nan nan nan nan nan nan nan
nan nan nan nan nan nan nan nan nan nan nan nan nan nan nan nan nan nan nan nan nan nan nan nan nan nan nan nan nan nan nan nan nan nan nan nan nan nan nan nan nan nan nan nan nan nan 0 nan nan nan nan nan nan nan nan nan nan nan nan 0 0 nan nan nan nan nan nan nan nan nan nan nan nan nan nan nan nan nan nan nan nan nan nan nan nan nan
nan nan nan nan nan nan nan nan nan nan nan nan nan nan nan nan nan nan nan nan nan nan nan nan nan nan nan nan nan nan nan nan nan nan nan nan nan nan nan nan nan nan nan nan nan nan nan nan nan nan nan nan nan nan nan nan nan nan nan nan nan nan nan nan nan nan nan nan nan nan nan nan nan nan nan nan nan nan nan nan nan nan nan nan nan nan
nan nan nan nan nan nan nan nan nan nan nan nan nan nan nan nan nan nan nan nan nan nan nan nan nan nan nan nan nan nan nan nan nan nan nan nan nan nan nan nan nan nan nan nan nan nan nan nan nan nan nan nan nan nan nan nan nan nan nan nan nan nan nan nan nan nan nan nan nan nan nan nan nan nan nan nan nan nan nan nan nan nan nan nan nan nan
nan nan nan nan nan nan nan nan nan nan nan nan nan nan nan nan nan nan nan nan nan nan nan nan nan nan nan nan nan nan nan nan nan nan nan nan nan nan nan nan nan nan nan nan nan nan nan nan nan nan nan nan nan nan nan nan nan nan nan nan nan nan nan nan nan nan nan nan nan nan nan nan nan nan nan nan nan nan nan nan nan nan nan nan nan nan
nan nan nan nan nan nan nan nan nan nan nan nan nan nan nan nan nan nan nan nan nan nan nan nan nan nan nan nan nan nan nan nan nan nan nan nan nan nan nan nan nan nan nan nan nan nan nan nan nan nan nan 1 nan nan nan nan nan 0 nan nan nan nan nan nan nan nan nan nan nan nan nan nan nan nan nan nan nan nan nan nan nan nan nan nan nan nan
nan nan nan nan nan nan nan nan nan nan nan nan nan nan nan nan nan nan nan nan nan nan nan nan nan nan nan nan nan nan nan nan nan nan nan nan nan nan nan nan nan nan nan nan nan nan nan nan nan nan nan 0 1 1 0 1 1 1 0 nan nan nan nan nan nan nan nan nan nan nan nan nan nan nan nan nan nan nan nan nan nan nan nan nan nan nan
nan nan nan nan nan nan nan nan nan nan nan nan nan nan nan nan nan nan nan nan nan nan nan nan nan nan nan nan nan nan nan nan nan nan nan nan nan nan nan nan nan nan nan nan nan nan nan nan nan 0 0 nan 2 2 2 1 1 2 2 1 1 1 0 0 0 0 0 nan nan nan nan nan nan nan nan nan nan nan nan nan nan nan nan nan nan nan
nan nan nan nan nan nan nan nan nan nan nan nan nan nan nan nan nan nan nan nan nan nan nan nan nan nan nan nan nan nan nan nan nan nan nan nan nan nan nan nan nan nan nan nan nan nan nan nan nan nan 0 nan 0 0 3 3 3 3 3 3 3 2 2 1 1 1 1 0 nan nan nan nan nan nan nan nan nan nan nan nan nan nan nan nan nan nan
nan nan nan nan nan nan nan nan nan nan nan nan nan nan nan nan nan nan nan nan nan nan nan nan nan nan nan nan nan nan nan nan nan nan nan nan nan nan nan nan nan nan nan nan nan nan nan nan nan nan nan 0 nan nan 0 3 3 6 7 7 7 6 6 4 4 2 2 1 0 0 nan nan nan nan nan nan nan nan nan nan nan nan nan nan nan nan
nan nan nan nan nan nan nan nan nan nan nan nan nan nan nan nan nan nan nan nan nan nan nan nan nan nan nan nan nan nan nan nan nan nan nan nan nan nan nan nan nan nan nan nan nan nan nan nan nan nan 0 0 0 0 nan 0 0 3 5 8 8 10 11 10 10 8 6 3 2 2 1 0 nan nan 0 nan nan nan nan nan nan nan nan nan nan nan
nan nan nan nan nan nan nan nan nan nan nan nan nan nan nan nan nan nan nan nan nan nan nan nan nan nan nan nan nan nan nan nan nan nan nan nan nan nan nan nan nan nan nan nan nan nan nan nan nan nan nan 0 0 0 nan nan nan 0 0 3 3 4 9 9 9 12 13 9 8 8 4 3 1 1 1 0 0 0 nan nan nan nan nan nan nan nan
nan nan nan nan nan nan nan nan nan nan nan nan nan nan nan nan nan nan nan nan nan nan nan nan nan nan nan nan nan nan nan nan nan nan nan nan nan nan nan nan nan nan nan nan nan nan nan nan nan nan nan nan nan nan nan nan nan nan nan 1 1 2 3 3 3 7 12 12 13 13 10 9 7 7 3 1 0 0 nan nan nan nan nan nan nan nan
nan nan nan nan nan nan nan 0 0 0 0 nan nan nan nan nan nan nan nan nan nan nan nan nan nan nan nan nan nan nan nan nan nan nan nan nan nan nan nan nan nan nan nan nan nan nan nan nan nan nan nan nan nan nan nan nan nan nan nan nan nan 0 1 2 2 3 4 11 14 14 16 17 13 13 8 6 2 2 1 0 0 0 nan nan nan nan
nan nan nan nan nan 0 1 2 1 1 0 0 nan nan nan nan nan nan nan nan nan nan nan nan nan nan 0 nan nan nan nan nan nan nan nan nan nan nan nan nan nan nan nan nan nan nan nan nan nan nan nan nan nan nan nan nan nan nan nan nan nan 0 0 1 1 1 2 4 8 8 13 18 18 18 16 11 6 6 2 1 1 nan 0 2 2 nan
nan 0 0 1 1 2 3 4 4 4 3 1 1 1 nan nan nan nan nan nan nan nan nan nan nan nan nan nan nan nan nan nan nan nan nan nan nan nan nan nan nan nan nan nan nan nan nan nan nan nan nan nan nan nan nan nan nan nan nan nan nan nan nan 0 0 0 1 2 3 3 7 13 17 17 20 18 10 10 5 3 3 1 2 nan nan nan
0 1 2 4 4 5 5 4 5 5 5 6 4 4 nan nan nan nan nan nan nan nan nan nan nan nan nan nan nan nan nan nan nan nan nan nan nan nan nan nan nan nan nan nan nan nan nan nan nan nan nan nan nan nan nan nan nan nan nan nan nan nan nan nan nan nan nan 0 2 2 3 4 8 8 14 15 16 16 11 6 6 3 nan nan nan nan
nan nan nan nan nan nan nan nan 3 3 4 5 4 4 nan nan nan nan nan nan nan nan nan nan nan nan nan nan nan nan nan nan nan nan nan nan nan nan nan nan nan nan nan nan nan nan nan nan nan nan nan nan nan nan nan nan nan nan nan nan nan nan nan nan nan nan nan nan 0 0 0 1 3 3 3 6 13 13 12 11 11 4 nan nan nan nan
nan nan nan nan nan nan nan nan nan nan 0 1 0 0 nan nan nan nan nan nan nan nan nan nan nan nan nan nan nan nan nan nan nan nan nan nan nan nan nan nan nan nan nan nan nan nan nan nan nan nan nan nan nan nan nan nan nan nan nan nan nan nan nan nan nan nan nan nan nan nan nan nan nan nan 1 3 4 4 12 21 21 2 nan nan nan nan
nan nan nan nan nan nan nan nan nan nan nan nan nan nan nan nan nan nan nan nan nan nan nan nan nan nan nan nan nan nan nan nan nan nan nan nan nan nan nan nan nan nan nan nan nan nan nan nan nan nan nan nan nan nan nan nan nan nan nan nan nan nan nan nan nan nan nan nan nan nan nan nan nan nan nan nan nan nan 0 1 1 11 nan nan nan nan
nan nan nan nan nan nan nan nan nan nan nan nan nan nan nan nan nan nan nan nan nan nan nan nan nan nan nan nan nan nan nan nan nan nan nan nan nan nan nan nan nan nan nan nan nan nan nan nan nan nan nan nan nan nan nan nan nan nan nan nan nan nan nan nan nan nan nan nan nan nan nan nan nan nan nan nan nan nan nan nan nan 0 nan nan nan nan
nan nan nan nan nan nan nan nan nan nan nan nan nan nan nan nan nan nan nan nan nan nan nan nan nan nan nan nan nan nan nan nan nan nan nan nan nan nan nan nan nan nan nan nan nan nan nan nan nan nan nan nan nan nan nan nan nan nan nan nan nan nan nan nan nan nan nan nan nan nan nan nan nan nan nan nan nan nan nan nan nan nan 0 nan nan nan
nan nan nan nan nan nan nan nan nan nan nan nan nan nan nan nan nan nan nan nan nan nan nan nan nan nan nan nan nan nan nan nan nan nan 0 nan nan nan nan nan nan nan nan nan nan nan nan nan nan nan nan nan nan nan nan nan nan nan nan nan nan nan nan nan nan nan nan nan nan nan nan nan nan nan nan nan nan nan nan nan nan nan nan 4 4 nan
nan nan nan nan nan nan nan nan nan nan nan nan nan nan nan nan nan nan nan nan nan nan nan nan nan nan nan nan nan nan nan nan nan nan nan nan nan nan nan nan nan nan nan nan nan nan nan nan nan nan nan nan nan nan nan nan nan nan nan nan nan nan nan nan nan nan nan nan nan nan nan nan nan nan nan nan nan nan nan nan nan nan nan 0 0 3
nan nan nan nan nan nan nan nan nan nan nan nan nan nan nan nan nan nan nan nan nan nan nan nan nan nan nan nan nan nan nan nan nan nan nan nan nan nan nan nan nan nan nan nan nan nan nan nan nan nan nan nan nan nan nan nan nan nan nan nan nan nan nan nan nan nan nan nan nan nan nan nan nan nan nan nan nan nan nan nan nan nan nan nan nan nan
nan nan nan nan nan nan nan nan nan nan nan nan nan nan nan nan nan nan nan nan nan nan nan nan nan nan nan nan nan nan nan nan nan nan nan nan nan nan nan nan nan nan nan nan nan nan nan nan nan nan nan nan nan nan nan nan nan nan nan nan nan nan nan nan nan nan nan nan nan nan nan nan nan nan nan nan nan nan nan nan nan nan nan nan nan nan
nan nan nan nan nan nan nan nan nan nan nan nan nan nan nan nan nan nan nan nan nan nan nan nan nan nan nan nan nan nan nan nan nan nan nan nan nan nan nan nan nan nan nan nan nan nan nan nan nan nan nan nan nan nan nan nan nan nan nan nan nan nan nan nan nan nan nan nan nan nan nan nan nan nan nan nan nan nan nan nan nan nan nan nan nan nan
nan nan nan nan nan nan nan nan nan nan nan nan nan nan nan nan nan nan nan nan nan nan nan nan nan nan nan nan nan nan nan nan nan nan nan nan nan nan nan nan nan nan nan nan nan nan nan nan nan nan nan nan nan nan nan nan nan nan nan nan nan nan nan nan nan nan nan nan nan nan nan nan nan nan nan nan nan nan nan nan nan nan nan nan nan nan
nan nan nan nan nan nan nan nan nan nan nan nan nan nan nan nan nan nan nan nan nan nan nan nan nan nan nan nan nan nan nan nan nan nan nan nan nan nan nan nan nan nan nan nan nan nan nan nan nan nan nan nan nan nan nan nan nan nan nan nan nan nan nan nan nan nan nan nan nan nan nan nan nan nan nan nan nan nan nan nan nan nan nan nan nan nan
nan nan nan nan nan nan nan nan nan nan nan nan nan nan nan nan nan nan nan nan nan nan nan nan nan nan nan nan nan nan nan nan nan nan nan nan nan nan nan nan nan nan nan nan nan nan nan nan nan nan nan nan nan nan nan nan nan nan nan nan nan nan nan nan nan nan nan nan nan nan nan nan nan nan nan nan nan nan nan nan nan nan nan nan nan nan
nan nan nan nan nan nan nan nan nan nan nan nan nan nan nan nan nan nan nan nan nan nan nan nan nan nan nan nan nan nan nan nan nan nan nan nan nan nan nan nan nan nan nan nan nan nan nan nan nan nan nan nan nan nan nan nan nan nan nan nan nan nan nan nan nan nan nan nan nan nan nan nan nan nan nan nan nan nan nan nan nan nan nan nan nan nan
nan nan nan nan nan nan nan nan nan nan nan nan nan nan nan nan nan nan nan nan nan nan nan nan nan nan nan nan nan nan nan nan nan nan nan nan nan nan nan nan nan nan nan nan nan nan nan nan nan nan nan nan nan nan nan nan nan nan nan nan nan nan nan nan nan nan nan nan nan nan nan nan nan nan nan nan nan nan nan nan nan nan nan nan nan nan
nan nan nan nan nan nan nan nan nan nan nan nan nan nan nan nan nan nan nan nan nan nan nan nan nan nan nan nan nan nan nan nan nan nan nan nan 2 2 nan nan nan nan nan nan nan nan nan nan nan nan nan nan nan nan nan nan nan nan nan nan nan nan nan nan nan nan nan nan nan nan nan nan nan nan nan nan nan nan nan nan nan nan nan nan nan nan
nan nan nan nan nan nan nan nan nan nan nan nan nan nan nan nan nan nan nan nan nan nan nan nan nan nan nan nan nan nan nan nan nan nan nan nan nan nan nan nan nan nan nan nan nan nan nan nan nan nan nan nan nan nan nan nan nan nan nan nan nan nan nan nan nan nan nan nan nan nan nan nan nan nan nan nan nan nan nan nan nan nan nan nan nan nan
nan nan nan nan nan nan nan nan nan nan nan nan nan nan nan nan nan nan nan nan nan nan nan nan nan nan nan nan nan nan nan nan nan nan nan nan nan nan nan 0 0 nan nan nan nan nan nan nan nan nan nan nan nan nan nan nan nan nan nan nan nan nan nan nan nan nan nan nan nan nan nan nan nan nan nan nan nan nan nan nan nan nan nan nan nan nan
nan nan nan nan nan nan nan nan nan nan nan nan nan nan nan nan nan nan nan nan nan nan nan nan nan nan nan nan nan nan nan nan nan nan nan nan nan nan nan nan nan nan nan 0 0 0 nan nan nan nan nan nan nan nan nan nan nan nan nan nan nan nan nan nan nan nan nan nan nan nan nan nan nan nan nan nan nan nan nan nan nan nan nan nan nan nan
nan nan nan nan nan nan nan nan nan nan nan nan nan nan nan nan nan nan nan nan nan nan nan nan nan nan nan nan nan nan nan nan nan nan nan nan nan nan nan nan nan nan nan nan nan nan nan nan nan 0 nan nan nan nan nan nan nan nan nan nan nan nan nan nan nan nan nan nan nan nan nan nan nan nan nan nan nan nan nan nan nan nan nan nan nan nan
nan nan nan nan nan nan nan nan nan nan nan nan nan nan nan nan nan nan nan nan nan nan nan nan nan nan nan nan nan nan nan nan nan nan nan nan nan nan nan nan nan nan nan nan nan nan nan nan nan nan 1 nan nan nan nan nan nan nan nan nan nan nan nan nan nan nan nan nan nan nan nan nan nan nan nan nan nan nan nan nan nan nan nan nan nan nan
nan nan nan nan nan nan nan nan nan nan nan nan nan nan nan nan nan nan nan nan nan nan nan nan nan nan nan nan nan nan nan nan nan nan nan nan nan nan nan nan nan nan nan nan nan nan nan nan nan nan nan 4 nan nan nan nan nan nan nan nan nan nan nan nan nan nan nan nan nan nan nan nan nan nan nan nan nan nan nan nan nan nan nan nan nan nan
CIN
-0 -0 nan nan nan nan nan nan nan nan nan nan nan nan nan nan nan nan nan -0 -0 nan nan nan nan nan nan -0 -0 -0 -0 -0 -0 -0 -0 -0 -0 -0 -0 -3 -3 -5 -4 -7 -7 -8 -7 -2 -2 -1 -0 -0 -0 -0 -0 -0 -0 -0 -0 -0 -0 -0 -0 -0 -0 -0 -0 -0 -0 -0 -0 -0 -0 -0 -0 -0 -0 -0 -0 -0 -0 -0 -0 -0 -0 -0
-0 -0 -0 nan nan nan nan nan nan nan nan nan nan nan -0 nan nan nan nan nan nan nan nan nan nan nan nan -0 -0 -0 -0 -0 -0 -0 nan nan -0 -0 -0 -1 -1 -4 -4 -4 -4 -7 -4 -1 -1 -1 -0 -0 -0 -0 -0 -1 -1 -0 -0 -0 -0 -0 -0 -0 -0 -0 -0 -0 -0 -0 -0 -0 -0 -0 -0 -0 -0 -0 -0 -0 -0 -0 -0 -0 -0 -0
nan nan -0 nan nan nan nan -0 nan nan -0 nan nan nan -0 nan nan nan nan nan nan nan nan nan nan nan nan nan -0 -0 -0 -0 -0 -0 nan nan -0 -0 -0 -0 -0 -3 -3 -2 -2 -5 -2 -2 -2 -2 -1 -1 -1 -1 -3 -2 -2 -2 -1 -1 -1 -0 -0 -0 -0 -0 -0 -0 -0 -0 -0 -0 -0 -0 -0 -0 -0 -0 -0 -0 -0 -0 -0 -0 -0 -0
nan nan nan -0 -0 nan nan nan -0 -0 -0 -0 -0 -0 -0 -0 -0 -0 nan nan nan nan nan nan nan nan nan -0 -0 -0 -0 -0 -0 -0 -0 nan nan nan -0 -0 -0 -3 -3 -3 -3 -6 -1 -2 -2 -1 -1 -1 -3 -3 -4 nan nan nan -3 -1 -1 -0 -1 -1 -1 -0 -0 -0 -0 -0 -0 -0 -0 -0 -0 -0 -0 -0 -0 -0 -0 -0 -0 -0 -0 -0
nan nan nan -0 -0 -0 nan -0 -0 -0 -0 -0 -0 -0 nan nan -0 -0 -0 nan nan nan nan nan nan -0 nan -0 -0 -0 -0 -0 -0 -0 -0 -0 -0 -0 -0 -0 -0 -2 -3 -0 -0 -4 -1 -1 -1 -0 -0 -19 -26 -26 nan nan nan nan nan -30 -30 -0 -3 -4 -4 -4 -0 -0 -0 -0 -0 -0 -0 -0 -0 -0 -0 -0 -0 -0 -0 -0 -0 -0 -0 -0
nan nan nan -0 -0 -0 -0 -0 nan nan nan -0 nan nan nan nan -0 -0 nan nan nan nan nan nan nan nan nan -0 -0 -0 -0 -0 -0 -0 -0 -0 -0 -0 -0 -0 -0 -0 -3 -0 -0 -0 -0 -0 -0 -0 -0 -0 -23 -23 nan nan nan nan nan -4 -4 -0 -0 -0 -0 -0 -0 -0 -1 -1 -0 -0 -0 -0 -0 -0 -0 -0 -0 -0 -0 -0 -0 -0 -0 -0
nan nan -0 -0 -0 -0 nan nan nan nan nan nan nan nan -0 nan nan nan nan nan nan nan nan nan nan -0 -0 nan nan nan -0 -0 -0 -0 -0 -0 -0 -0 -0 -0 -0 -1 -1 -0 -0 -0 -0 -0 -0 -0 -0 -0 -0 -0 nan nan nan nan nan -4 -4 -3 -0 -0 -0 -0 -0 -0 -0 -0 -0 -0 -0 -0 -0 -0 -0 -0 -0 -0 -0 -0 -0 -0 -0 -0
nan nan nan nan nan nan nan nan nan nan nan nan nan nan -0 nan nan nan nan nan nan nan -0 nan nan nan nan nan nan nan nan nan nan nan -0 -0 -0 -0 -0 -0 -0 -0 -0 -0 -0 -0 -0 -0 -0 -0 -0 -0 -0 -0 nan nan nan nan nan nan nan -6 nan nan nan nan nan -0 -0 -0 -1 nan nan nan nan -9 -2 -2 -1 -0 -0 -0 -0 -0 -0 -0
nan nan nan nan nan nan nan nan -0 -0 nan -0 -0 -0 nan nan nan nan nan nan nan nan nan nan nan nan nan nan nan nan nan nan -1 -1 -1 -0 -0 -0 -0 -0 -0 -1 -0 -0 -0 -0 -0 -0 -0 -0 -0 -0 nan nan nan nan nan nan nan nan nan nan nan nan nan nan nan nan nan nan nan nan nan nan nan nan nan nan nan nan nan -2 -0 -0 -0 -0
nan nan nan nan nan nan nan nan nan nan -0 -0 -0 -0 nan nan nan nan nan nan nan nan nan nan nan nan nan nan nan nan nan nan -0 -0 -0 nan -0 -0 -0 -0 -0 -1 -21 -0 -0 -0 -0 -0 -0 -0 -0 nan nan nan nan nan nan nan nan nan nan nan nan nan nan nan nan nan nan nan nan nan nan nan nan nan nan nan nan nan nan nan nan nan nan -0
nan nan nan nan nan nan nan nan nan nan nan nan nan nan nan -0 nan nan nan nan nan nan nan nan nan nan -0 nan nan nan nan nan nan nan nan nan nan nan -0 nan nan nan -34 -1 -1 -0 -0 -0 -0 -0 nan nan nan nan nan nan nan nan nan nan nan nan nan nan nan nan nan nan nan nan nan nan nan nan nan nan nan nan nan nan nan nan nan nan nan nan
nan nan nan nan nan nan nan nan nan nan nan nan nan nan nan nan nan nan nan nan nan nan nan nan nan nan nan nan nan nan nan nan nan nan nan nan nan nan -0 nan nan nan nan -0 -0 -0 -0 -0 -0 nan nan nan nan nan nan nan nan nan nan nan nan nan -7 nan nan nan nan nan nan nan nan nan nan nan nan nan nan nan nan nan nan nan nan nan nan nan
nan nan nan nan nan nan nan nan nan nan nan nan nan nan nan nan nan nan nan nan nan nan nan nan nan -0 nan nan nan nan nan nan nan nan nan nan nan nan nan nan nan nan nan nan nan nan -0 -0 -0 nan nan nan nan nan nan nan nan nan nan -5 -5 nan nan nan nan nan nan nan nan nan nan nan nan nan nan nan nan nan nan nan nan nan nan nan nan nan
nan nan nan nan nan nan nan nan nan nan nan nan nan nan nan nan nan nan nan nan nan nan nan nan nan nan nan nan nan nan nan nan nan nan nan nan nan nan nan nan nan nan nan nan nan nan -0 nan nan nan nan nan nan nan nan nan nan nan nan -4 -4 nan nan nan nan nan nan nan nan nan nan nan nan nan nan nan nan nan nan nan nan nan nan nan nan nan
nan nan nan nan nan nan nan nan nan nan nan nan nan nan nan nan nan nan nan nan nan nan nan nan nan nan nan nan nan nan nan nan nan nan nan nan nan nan nan nan nan nan nan nan nan nan nan nan nan nan nan nan nan nan nan nan nan nan nan nan nan nan nan nan nan nan nan nan nan nan nan nan nan nan nan nan nan nan nan nan nan nan nan nan nan nan
nan nan nan nan nan nan nan nan nan nan nan nan nan nan nan nan nan nan nan nan nan nan nan nan nan nan nan nan nan nan nan nan nan nan nan nan nan nan nan nan nan nan nan nan nan nan nan nan nan nan nan nan nan nan nan nan nan nan nan nan nan nan nan nan nan nan nan nan nan nan nan nan nan nan nan nan nan nan nan nan nan nan nan nan nan nan
nan nan nan nan nan nan nan nan nan nan nan nan nan nan nan nan nan nan nan nan nan nan nan nan nan nan nan nan nan nan nan nan nan nan nan nan nan nan nan nan nan nan nan nan nan nan nan nan nan nan nan nan nan nan nan nan nan nan nan nan nan nan nan nan nan nan nan nan nan nan nan nan nan nan nan nan nan nan nan nan nan nan nan nan nan nan
nan nan nan nan nan nan nan nan nan nan nan nan nan nan nan nan nan nan nan nan nan nan nan nan nan nan nan nan nan nan nan nan nan nan nan nan nan nan nan nan nan nan nan nan nan nan nan nan nan nan nan -0 nan nan nan nan nan -0 nan nan nan nan nan nan nan nan nan nan nan nan nan nan nan nan nan nan nan nan nan nan nan nan nan nan nan nan
nan nan nan nan nan nan nan nan nan nan nan nan nan nan nan nan nan nan nan nan nan nan nan nan nan nan nan nan nan nan nan nan nan nan nan nan nan nan nan nan nan nan nan nan nan nan nan nan nan nan nan -1 -0 -0 -0 -0 -0 -0 -0 nan nan nan nan nan nan nan nan nan nan nan nan nan nan nan nan nan nan nan nan nan nan nan nan nan nan nan
nan nan nan nan nan nan nan nan nan nan nan nan nan nan nan nan nan nan nan nan nan nan nan nan nan nan nan nan nan nan nan nan nan nan nan nan nan nan nan nan nan nan nan nan nan nan nan nan nan -0 -0 nan -0 -0 -0 -0 -0 -0 -0 -0 -0 -0 -0 -0 -0 -0 -0 nan nan nan nan nan nan nan nan nan nan nan nan nan nan nan nan nan nan nan
nan nan nan nan nan nan nan nan nan nan nan nan nan nan nan nan nan nan nan nan nan nan nan nan nan nan nan nan nan nan nan nan nan nan nan nan nan nan nan nan nan nan nan nan nan nan nan nan nan nan -0 nan -2 -2 -0 -0 -0 -0 -0 -0 -0 -0 -0 -0 -0 -0 -0 -0 nan nan nan nan nan nan nan nan nan nan nan nan nan nan nan nan nan nan
nan nan nan nan nan nan nan nan nan nan nan nan nan nan nan nan nan nan nan nan nan nan nan nan nan nan nan nan nan nan nan nan nan nan nan nan nan nan nan nan nan nan nan nan nan nan nan nan nan nan nan -0 nan nan -1 -1 -1 -0 -0 -0 -0 -0 -0 -0 -0 -0 -0 -0 -1 -1 nan nan nan nan nan nan nan nan nan nan nan nan nan nan nan nan
nan nan nan nan nan nan nan nan nan nan nan nan nan nan nan nan nan nan nan nan nan nan nan nan nan nan nan nan nan nan nan nan nan nan nan nan nan nan nan nan nan nan nan nan nan nan nan nan nan nan -0 -0 -0 -0 nan -0 -0 -0 -0 -0 -0 -0 -0 -0 -0 -0 -0 -0 -0 -0 -0 -1 nan nan -2 nan nan nan nan nan nan nan nan nan nan nan
nan nan nan nan nan nan nan nan nan nan nan nan nan nan nan nan nan nan nan nan nan nan nan nan nan nan nan nan nan nan nan nan nan nan nan nan nan nan nan nan nan nan nan nan nan nan nan nan nan nan nan -0 -0 -0 nan nan nan -0 -0 -0 -0 -0 -0 -0 -0 -0 -0 -0 -0 -0 -0 -0 -1 -1 -1 -1 -1 -1 nan nan nan nan nan nan nan nan
nan nan nan nan nan nan nan nan nan nan nan nan nan nan nan nan nan nan nan nan nan nan nan nan nan nan nan nan nan nan nan nan nan nan nan nan nan nan nan nan nan nan nan nan nan nan nan nan nan nan nan nan nan nan nan nan nan nan nan -0 -0 -0 -0 -0 -0 -0 -0 -0 -0 -0 -0 -0 -0 -0 -0 -0 -1 -1 nan nan nan nan nan nan nan nan
nan nan nan nan nan nan nan -0 -0 -0 -0 nan nan nan nan nan nan nan nan nan nan nan nan nan nan nan nan nan nan nan nan nan nan nan nan nan nan nan nan nan nan nan nan nan nan nan nan nan nan nan nan nan nan nan nan nan nan nan nan nan nan -0 -0 -0 -0 -0 -0 -0 -0 -0 -0 -0 -0 -0 -0 -0 -0 -0 -0 -1 -1 -1 nan nan nan nan
nan nan nan nan nan -0 -0 -0 -0 -0 -0 -0 nan nan nan nan nan nan nan nan nan nan nan nan nan nan -0 nan nan nan nan nan nan nan nan nan nan nan nan nan nan nan nan nan nan nan nan nan nan nan nan nan nan nan nan nan nan nan nan nan nan -0 -0 -0 -0 -0 -0 -0 -0 -0 -0 -0 -0 -0 -0 -0 -0 -0 -0 -0 -0 nan -1 -2 -2 nan
nan -0 -0 -0 -0 -0 -0 -0 -0 -0 -0 -0 -0 -0 nan nan nan nan nan nan nan nan nan nan nan nan nan nan nan nan nan nan nan nan nan nan nan nan nan nan nan nan nan nan nan nan nan nan nan nan nan nan nan nan nan nan nan nan nan nan nan nan nan -0 -0 -0 -0 -0 -0 -0 -0 -0 -0 -0 -0 -0 -0 -0 -0 -0 -0 -0 -2 nan nan nan
-0 -0 -0 -0 -0 -0 -0 -0 -0 -0 -0 -0 -0 -0 nan nan nan nan nan nan nan nan nan nan nan nan nan nan nan nan nan nan nan nan nan nan nan nan nan nan nan nan nan nan nan nan nan nan nan nan nan nan nan nan nan nan nan nan nan nan nan nan nan nan nan nan nan -0 -0 -0 -0 -0 -0 -0 -0 -0 -0 -0 -0 -0 -0 -0 nan nan nan nan
nan nan nan nan nan nan nan nan -0 -0 -0 -0 -0 -0 nan nan nan nan nan nan nan nan nan nan nan nan nan nan nan nan nan nan nan nan nan nan nan nan nan nan nan nan nan nan nan nan nan nan nan nan nan nan nan nan nan nan nan nan nan nan nan nan nan nan nan nan nan nan -0 -0 -0 -0 -0 -0 -0 -0 -0 -0 -0 -0 -0 -4 nan nan nan nan
nan nan nan nan nan nan nan nan nan nan -0 -0 -0 -0 nan nan nan nan nan nan nan nan nan nan nan nan nan nan nan nan nan nan nan nan nan nan nan nan nan nan nan nan nan nan nan nan nan nan nan nan nan nan nan nan nan nan nan nan nan nan nan nan nan nan nan nan nan nan nan nan nan nan nan nan -0 -0 -0 -0 -0 -0 -0 -5 nan nan nan nan
nan nan nan nan nan nan nan nan nan nan nan nan nan nan nan nan nan nan nan nan nan nan nan nan nan nan nan nan nan nan nan nan nan nan nan nan nan nan nan nan nan nan nan nan nan nan nan nan nan nan nan nan nan nan nan nan nan nan nan nan nan nan nan nan nan nan nan nan nan nan nan nan nan nan nan nan nan nan -0 -0 -0 -0 nan nan nan nan
nan nan nan nan nan nan nan nan nan nan nan nan nan nan nan nan nan nan nan nan nan nan nan nan nan nan nan nan nan nan nan nan nan nan nan nan nan nan nan nan nan nan nan nan nan nan nan nan nan nan nan nan nan nan nan nan nan nan nan nan nan nan nan nan nan nan nan nan nan nan nan nan nan nan nan nan nan nan nan nan nan -0 nan nan nan nan
nan nan nan nan nan nan nan nan nan nan nan nan nan nan nan nan nan nan nan nan nan nan nan nan nan nan nan nan nan nan nan nan nan nan nan nan nan nan nan nan nan nan nan nan nan nan nan nan nan nan nan nan nan nan nan nan nan nan nan nan nan nan nan nan nan nan nan nan nan nan nan nan nan nan nan nan nan nan nan nan nan nan -0 nan nan nan
nan nan nan nan nan nan nan nan nan nan nan nan nan nan nan nan nan nan nan nan nan nan nan nan nan nan nan nan nan nan nan nan nan nan -2 nan nan nan nan nan nan nan nan nan nan nan nan nan nan nan nan nan nan nan nan nan nan nan nan nan nan nan nan nan nan nan nan nan nan nan nan nan nan nan nan nan nan nan nan nan nan nan nan -0 -0 nan
nan nan nan nan nan nan nan nan nan nan nan nan nan nan nan nan nan nan nan nan nan nan nan nan nan nan nan nan nan nan nan nan nan nan nan nan nan nan nan nan nan nan nan nan nan nan nan nan nan nan nan nan nan nan nan nan nan nan nan nan nan nan nan nan nan nan nan nan nan nan nan nan nan nan nan nan nan nan nan nan nan nan nan -2 -2 -13
nan nan nan nan nan nan nan nan nan nan nan nan nan nan nan nan nan nan nan nan nan nan nan nan nan nan nan nan nan nan nan nan nan nan nan nan nan nan nan nan nan nan nan nan nan nan nan nan nan nan nan nan nan nan nan nan nan nan nan nan nan nan nan nan nan nan nan nan nan nan nan nan nan nan nan nan nan nan nan nan nan nan nan nan nan nan
nan nan nan nan nan nan nan nan nan nan nan nan nan nan nan nan nan nan nan nan nan nan nan nan nan nan nan nan nan nan nan nan nan nan nan nan nan nan nan nan nan nan nan nan nan nan nan nan nan nan nan nan nan nan nan nan nan nan nan nan nan nan nan nan nan nan nan nan nan nan nan nan nan nan nan nan nan nan nan nan nan nan nan nan nan nan
nan nan nan nan nan nan nan nan nan nan nan nan nan nan nan nan nan nan nan nan nan nan nan nan nan nan nan nan nan nan nan nan nan nan nan nan nan nan nan nan nan nan nan nan nan nan nan nan nan nan nan nan nan nan nan nan nan nan nan nan nan nan nan nan nan nan nan nan nan nan nan nan nan nan nan nan nan nan nan nan nan nan nan nan nan nan
nan nan nan nan nan nan nan nan nan nan nan nan nan nan nan nan nan nan nan nan nan nan nan nan nan nan nan nan nan nan nan nan nan nan nan nan nan nan nan nan nan nan nan nan nan nan nan nan nan nan nan nan nan nan nan nan nan nan nan nan nan nan nan nan nan nan nan nan nan nan nan nan nan nan nan nan nan nan nan nan nan nan nan nan nan nan
nan nan nan nan nan nan nan nan nan nan nan nan nan nan nan nan nan nan nan nan nan nan nan nan nan nan nan nan nan nan nan nan nan nan nan nan nan nan nan nan nan nan nan nan nan nan nan nan nan nan nan nan nan nan nan nan nan nan nan nan nan nan nan nan nan nan nan nan nan nan nan nan nan nan nan nan nan nan nan nan nan nan nan nan nan nan
nan nan nan nan nan nan nan nan nan nan nan nan nan nan nan nan nan nan nan nan nan nan nan nan nan nan nan nan nan nan nan nan nan nan nan nan nan nan nan nan nan nan nan nan nan nan nan nan nan nan nan nan nan nan nan nan nan nan nan nan nan nan nan nan nan nan nan nan nan nan nan nan nan nan nan nan nan nan nan nan nan nan nan nan nan nan
nan nan nan nan nan nan nan nan nan nan nan nan nan nan nan nan nan nan nan nan nan nan nan nan nan nan nan nan nan nan nan nan nan nan nan nan nan nan nan nan nan nan nan nan nan nan nan nan nan nan nan nan nan nan nan nan nan nan nan nan nan nan nan nan nan nan nan nan nan nan nan nan nan nan nan nan nan nan nan nan nan nan nan nan nan nan
nan nan nan nan nan nan nan nan nan nan nan nan nan nan nan nan nan nan nan nan nan nan nan nan nan nan nan nan nan nan nan nan nan nan nan nan nan nan nan nan nan nan nan nan nan nan nan nan nan nan nan nan nan nan nan nan nan nan nan nan nan nan nan nan nan nan nan nan nan nan nan nan nan nan nan nan nan nan nan nan nan nan nan nan nan nan
nan nan nan nan nan nan nan nan nan nan nan nan nan nan nan nan nan nan nan nan nan nan nan nan nan nan nan nan nan nan nan nan nan nan nan nan -0 -0 nan nan nan nan nan nan nan nan nan nan nan nan nan nan nan nan nan nan nan nan nan nan nan nan nan nan nan nan nan nan nan nan nan nan nan nan nan nan nan nan nan nan nan nan nan nan nan nan
nan nan nan nan nan nan nan nan nan nan nan nan nan nan nan nan nan nan nan nan nan nan nan nan nan nan nan nan nan nan nan nan nan nan nan nan nan nan nan nan nan nan nan nan nan nan nan nan nan nan nan nan nan nan nan nan nan nan nan nan nan nan nan nan nan nan nan nan nan nan nan nan nan nan nan nan nan nan nan nan nan nan nan nan nan nan
nan nan nan nan nan nan nan nan nan nan nan nan nan nan nan nan nan nan nan nan nan nan nan nan nan nan nan nan nan nan nan nan nan nan nan nan nan nan nan -1 -1 nan nan nan nan nan nan nan nan nan nan nan nan nan nan nan nan nan nan nan nan nan nan nan nan nan nan nan nan nan nan nan nan nan nan nan nan nan nan nan nan nan nan nan nan nan
nan nan nan nan nan nan nan nan nan nan nan nan nan nan nan nan nan nan nan nan nan nan nan nan nan nan nan nan nan nan nan nan nan nan nan nan nan nan nan nan nan nan nan -0 -0 -0 nan nan nan nan nan nan nan nan nan nan nan nan nan nan nan nan nan nan nan nan nan nan nan nan nan nan nan nan nan nan nan nan nan nan nan nan nan nan nan nan
nan nan nan nan nan nan nan nan nan nan nan nan nan nan nan nan nan nan nan nan nan nan nan nan nan nan nan nan nan nan nan nan nan nan nan nan nan nan nan nan nan nan nan nan nan nan nan nan nan -1 nan nan nan nan nan nan nan nan nan nan nan nan nan nan nan nan nan nan nan nan nan nan nan nan nan nan nan nan nan nan nan nan nan nan nan nan
nan nan nan nan nan nan nan nan nan nan nan nan nan nan nan nan nan nan nan nan nan nan nan nan nan nan nan nan nan nan nan nan nan nan nan nan nan nan nan nan nan nan nan nan nan nan nan nan nan nan -0 nan nan nan nan nan nan nan nan nan nan nan nan nan nan nan nan nan nan nan nan nan nan nan nan nan nan nan nan nan nan nan nan nan nan nan
nan nan nan nan nan nan nan nan nan nan nan nan nan nan nan nan nan nan nan nan nan nan nan nan nan nan nan nan nan nan nan nan nan nan nan nan nan nan nan nan nan nan nan nan nan nan nan nan nan nan nan -0 nan nan nan nan nan nan nan nan nan nan nan nan nan nan nan nan nan nan nan nan nan nan nan nan nan nan nan nan nan nan nan nan nan nan
Wind_Speed
1 1 1 1 1 1 1 1 1 2 2 2 2 2 2 3 3 4 5 5 5 4 4 3 4 4 5 7 8 8 8 7 7 7 7 8 8 7 6 5 5 5 5 4 4 4 4 3 3 3 3 2 2 3 3 4 4 5 5 6 6 5 6 9 10 12 13 15 16 17 17 18 18 17 17 16 16 15 14 13 13 12 12 11 11 10
1 1 1 1 1 2 1 0 1 2 2 2 2 2 3 3 3 3 4 4 4 4 3 3 4 4 4 5 7 8 8 8 7 7 7 8 8 8 7 5 5 5 5 5 5 4 4 4 4 4 3 3 3 3 3 4 4 5 5 5 6 7 8 9 10 11 12 13 14 15 15 15 15 16 16 15 15 14 14 13 12 11 11 10 10 9
1 1 1 1 1 2 2 1 1 2 2 2 2 2 3 3 3 3 3 3 3 3 3 3 3 3 4 4 6 8 8 8 8 8 7 8 8 8 8 6 5 6 6 6 5 5 5 4 4 4 4 3 3 3 4 4 4 5 5 6 6 7 8 9 10 10 11 12 12 13 13 13 14 14 14 14 13 13 12 12 11 10 10 9 9 8
1 1 1 1 1 1 1 1 1 2 2 3 3 3 3 3 2 2 2 3 3 3 3 2 2 3 3 4 5 7 9 9 8 8 7 7 8 8 8 6 5 6 7 6 6 6 5 5 5 5 4 4 4 4 4 4 5 5 6 6 7 7 7 8 9 9 10 10 10 11 11 12 12 12 13 12 12 12 11 11 10 9 9 8 8 8
0 1 1 1 1 1 1 1 2 2 2 3 3 3 3 2 2 2 2 2 3 3 3 3 2 2 2 3 5 7 9 9 9 8 7 7 7 8 8 7 6 7 8 7 7 6 6 6 5 5 5 4 4 4 4 5 5 6 7 7 7 7 7 8 8 8 8 9 9 9 10 11 11 11 12 12 11 11 11 10 10 10 9 9 8 8
1 1 0 0 0 1 1 1 2 2 3 3 3 3 2 2 2 2 2 2 3 3 3 2 2 2 2 3 5 7 9 9 9 8 8 7 7 7 7 7 7 8 9 9 8 7 7 7 6 6 5 5 5 5 5 6 6 6 7 7 8 8 8 8 8 8 8 8 9 9 10 10 10 10 11 11 11 11 10 10 10 10 9 9 9 8
1 1 1 1 0 0 1 1 2 2 3 2 2 2 2 2 2 2 1 2 2 2 2 2 2 1 1 3 5 7 8 8 8 8 8 8 7 7 7 7 7 8 10 10 10 9 8 8 7 7 6 6 5 5 6 6 6 7 7 7 8 8 9 9 9 8 8 8 9 9 10 10 10 10 10 10 10 10 9 9 9 9 9 9 8 8
2 1 1 0 0 1 1 1 2 2 3 2 2 2 2 1 1 1 1 1 1 1 2 2 2 1 1 2 4 5 5 5 5 6 6 7 7 7 7 7 7 8 11 11 11 10 9 9 8 8 7 7 6 6 7 7 7 7 7 8 8 9 9 9 9 9 9 9 9 9 10 10 10 9 9 9 9 9 8 8 8 7 7 7 7 7
3 1 0 0 1 1 2 2 2 2 3 2 1 1 1 1 1 1 1 1 1 1 1 2 2 2 1 2 3 4 5 4 4 4 4 5 6 6 7 7 6 8 11 12 11 11 10 10 9 8 8 8 7 7 7 7 7 7 7 8 8 9 9 10 10 10 9 9 10 10 10 10 10 10 10 10 9 9 8 8 7 7 6 6 6 6
3 3 2 1 1 1 2 1 2 2 3 2 1 1 1 1 1 1 2 2 1 1 1 1 2 2 2 2 3 3 4 5 5 5 6 6 7 7 8 6 4 7 11 12 12 11 11 10 10 9 9 9 8 8 8 7 7 7 7 8 8 9 9 9 9 9 9 9 10 10 10 10 10 10 10 10 10 10 10 9 9 8 7 7 6 6
3 3 2 2 1 1 2 2 1 2 2 1 1 1 1 1 1 1 1 1 2 2 1 1 1 2 2 3 3 4 4 4 4 5 6 8 9 9 8 5 2 6 10 11 11 11 11 10 10 10 9 9 9 8 8 7 7 7 7 8 8 9 9 9 9 9 9 9 9 9 9 10 10 10 10 10 10 10 10 10 9 9 9 8 8 7
3 2 2 2 2 2 1 1 2 2 1 1 1 1 1 1 1 1 1 1 1 2 2 2 1 1 1 2 3 3 3 3 3 3 4 6 7 7 7 4 1 5 8 9 9 10 10 10 10 10 9 9 8 8 7 7 7 7 7 8 8 8 8 8 8 8 8 8 8 8 8 8 9 9 9 9 9 9 9 9 9 9 8 8 8 7
2 2 2 2 2 2 2 2 2 1 1 1 1 1 1 1 1 1 2 1 0 1 1 1 1 1 1 1 2 2 3 3 3 3 3 4 5 5 5 4 2 3 4 5 6 6 8 9 9 9 9 8 8 7 7 7 7 7 8 8 8 8 8 8 8 8 8 8 8 8 7 7 7 7 7 8 8 8 8 8 8 8 8 7 7 7
1 1 2 2 2 2 2 2 2 2 2 2 2 2 2 1 1 2 2 1 0 1 1 1 1 1 1 1 2 2 2 2 2 2 2 3 3 4 4 3 2 2 3 3 3 4 6 6 6 6 8 7 7 7 7 7 7 8 8 8 8 8 8 8 8 7 7 7 7 7 7 6 6 6 6 6 6 7 7 7 7 7 7 7 7 7
2 2 3 3 2 2 2 2 3 2 2 2 1 1 2 2 2 2 2 1 1 1 1 1 1 1 1 1 1 2 2 2 2 2 2 3 3 3 3 3 3 3 3 3 3 3 4 4 4 4 5 6 6 6 6 6 7 8 8 8 8 8 8 8 7 7 7 7 6 6 6 5 5 4 4 5 5 5 5 6 6 6 6 6 6 6
2 2 3 3 3 2 2 2 2 2 2 2 2 2 2 2 2 2 2 0 0 1 1 2 2 2 1 0 1 2 3 2 2 2 2 2 3 3 4 3 3 3 3 3 3 3 3 3 3 3 4 5 6 6 6 6 7 7 7 7 7 7 7 7 7 7 7 6 6 5 5 4 3 3 3 3 3 4 4 4 4 5 5 5 6 6
2 2 2 3 2 2 2 2 2 2 2 2 2 2 2 2 2 2 2 1 1 0 1 1 1 1 1 1 1 2 3 2 2 2 2 2 2 3 3 2 2 2 2 2 2 2 2 3 3 3 3 5 6 6 6 6 6 7 7 7 7 7 7 6 6 6 6 5 5 4 4 3 3 2 2 2 2 2 3 3 3 4 4 4 5 5
2 2 2 2 2 2 2 2 2 2 2 2 2 2 2 2 2 2 2 2 1 1 1 1 1 0 1 1 2 2 3 2 2 1 2 2 2 2 3 2 2 2 2 2 2 2 2 2 2 1 3 5 6 6 5 6 6 6 6 6 6 6 6 5 5 5 5 5 4 4 3 3 2 2 2 1 1 1 1 1 2 2 3 3 4 5
2 2 2 2 2 2 2 2 2 2 2 2 2 2 2 2 2 1 1 2 2 2 2 1 1 1 1 1 1 1 2 1 1 1 1 1 2 2 3 2 2 2 2 2 2 2 2 2 3 2 2 4 5 5 5 5 5 5 5 5 5 5 5 5 5 4 4 4 4 4 3 3 3 2 2 2 1 1 1 1 1 2 3 3 4 4
3 2 2 3 3 3 2 2 2 3 3 3 3 3 2 2 2 2 2 2 2 2 2 2 1 1 1 1 1 2 2 2 1 1 1 1 1 2 3 2 2 2 1 1 1 2 2 2 2 2 1 1 2 4 4 4 4 4 4 4 4 4 4 4 5 5 5 5 5 4 4 4 4 3 3 3 2 2 2 2 3 3 3 4 4 4
3 2 2 3 3 3 2 2 3 3 4 4 4 3 2 2 2 2 2 2 2 2 2 2 1 1 1 0 1 2 2 2 1 1 1 1 1 1 2 2 2 2 1 1 1 2 2 2 2 3 3 2 1 2 3 4 4 4 4 5 5 5 5 5 6 6 6 6 6 6 5 5 5 4 4 4 4 4 4 4 4 4 4 4 5 5
3 3 2 3 3 3 3 3 3 4 5 5 4 3 2 2 2 2 2 2 2 2 2 2 1 1 1 0 1 1 2 1 1 0 1 1 1 1 2 2 2 1 1 1 2 2 2 2 2 2 4 4 3 2 2 2 3 4 5 5 6 6 6 7 7 7 7 7 7 7 7 7 6 6 6 5 5 5 5 5 5 5 5 5 5 6
3 3 3 3 3 3 4 4 4 4 4 4 4 3 3 3 3 3 3 2 2 2 2 2 1 1 1 0 1 1 1 1 1 0 1 1 1 1 2 2 2 1 1 1 1 2 2 2 2 2 3 5 5 4 4 3 3 4 4 5 5 6 6 7 8 8 9 9 9 8 8 8 8 7 7 6 6 6 6 5 5 5 5 6 6 6
4 4 4 4 3 4 4 4 3 3 3 2 2 2 2 2 2 2 2 2 2 2 2 2 2 2 1 1 1 1 2 1 1 0 1 1 0 1 2 2 2 1 1 1 1 1 2 2 1 1 2 4 5 5 5 5 5 5 5 5 5 5 6 6 6 7 8 9 9 9 9 9 9 9 8 8 7 7 6 6 6 6 6 6 6 6
5 5 4 4 5 5 5 4 4 3 3 2 2 2 3 3 4 3 3 3 3 3 2 3 2 2 1 1 1 1 2 2 1 0 1 1 1 0 1 1 1 1 2 2 1 1 1 2 1 1 2 3 5 5 6 6 5 6 6 6 6 6 6 6 6 6 7 7 8 9 10 10 10 10 9 9 8 8 7 7 7 6 6 6 6 7
7 7 7 7 8 8 8 7 7 6 6 4 3 3 3 4 4 3 3 2 2 3 3 3 1 1 1 1 1 2 2 2 1 1 1 1 1 0 1 1 1 1 2 2 2 1 1 1 1 2 2 3 4 5 6 6 6 6 6 6 6 7 7 7 7 7 7 7 7 8 9 10 10 10 10 9 9 8 8 7 7 7 7 7 6 6
12 11 11 11 11 10 10 9 9 9 8 7 6 5 4 4 3 3 2 2 2 3 3 2 1 0 1 1 1 2 2 2 2 1 0 1 1 1 1 1 1 1 2 2 2 1 1 1 2 2 2 2 3 4 6 6 6 6 6 6 6 7 7 7 7 8 7 8 8 8 8 9 9 10 10 10 9 9 8 8 8 7 7 6 5 4
13 13 12 11 11 11 10 10 9 9 9 9 9 7 5 4 3 3 2 2 2 3 3 2 2 1 1 1 2 2 2 2 2 1 1 1 1 1 1 1 1 1 1 2 2 1 2 2 2 2 2 2 2 3 5 6 6 6 6 6 6 6 6 7 7 7 8 8 8 8 8 8 8 9 9 10 10 9 9 8 8 7 6 4 1 1
12 11 11 10 10 9 8 8 8 9 9 8 8 7 4 3 3 3 3 3 3 3 2 2 2 2 1 1 1 1 1 1 2 2 1 1 1 1 1 1 1 1 1 1 2 2 2 2 1 1 2 2 3 3 4 5 6 6 6 6 6 6 6 6 6 7 7 7 8 8 8 8 8 8 8 8 8 9 9 8 8 6 3 1 1 1
8 8 8 8 8 7 7 6 6 7 8 8 7 5 3 3 3 3 3 3 3 3 3 2 2 2 1 1 0 1 1 1 2 1 0 1 1 0 1 1 1 1 1 1 2 2 3 2 1 1 1 2 3 3 3 3 4 4 4 5 5 6 6 6 6 7 7 7 7 8 8 8 9 9 9 8 7 7 7 8 7 4 1 2 2 1
5 5 5 5 5 5 5 5 5 6 7 7 6 5 3 3 3 3 3 3 3 3 3 2 2 2 2 1 1 0 1 2 2 1 1 2 1 0 0 1 1 1 1 1 1 1 2 2 2 2 2 3 3 3 3 3 3 3 3 3 4 5 7 7 7 7 7 7 8 8 8 8 8 9 9 9 8 7 7 7 6 4 2 2 2 1
4 4 3 3 3 4 4 4 4 4 4 5 4 4 4 4 3 3 3 3 3 3 3 3 2 2 2 1 1 1 1 2 2 1 2 2 1 1 1 1 1 1 1 1 2 2 0 1 2 3 3 3 3 3 3 3 3 3 3 3 3 4 6 7 7 7 7 7 7 8 8 8 8 8 9 9 9 9 8 8 7 4 1 2 2 2
4 3 3 3 3 3 3 3 3 3 3 3 3 4 4 4 4 4 2 2 2 3 3 3 3 2 1 1 1 1 1 2 2 1 2 2 2 1 1 1 1 1 1 2 2 2 2 1 2 2 3 3 2 2 3 3 3 3 3 3 3 3 5 5 5 5 5 5 6 6 7 7 8 8 8 8 9 9 9 9 8 6 3 2 3 3
4 4 3 3 3 3 3 3 3 3 3 3 3 4 4 4 4 3 3 2 1 2 3 3 3 3 2 2 1 0 1 2 2 1 2 2 2 2 1 1 1 1 1 2 2 2 2 1 1 2 2 3 2 2 2 2 2 2 2 2 2 2 3 4 4 4 4 4 4 4 5 5 6 7 7 8 8 8 9 9 9 9 7 3 3 3
4 4 3 3 3 3 3 3 3 3 3 3 3 3 3 3 3 3 2 2 2 1 2 2 3 3 3 3 2 1 1 2 2 1 2 2 2 2 2 1 1 2 2 2 2 2 1 1 1 1 2 2 3 2 2 2 2 1 1 1 1 1 2 2 3 3 4 3 3 3 3 4 4 5 6 7 7 8 9 9 10 10 10 7 5 4
3 3 2 2 2 2 2 2 2 2 2 2 2 2 2 2 2 2 2 2 2 2 2 2 1 2 2 3 3 3 2 2 1 0 2 2 3 3 2 2 2 2 3 2 2 1 1 1 1 1 1 1 2 3 2 2 2 2 1 1 1 1 1 1 1 2 3 3 4 4 4 4 4 4 5 7 8 8 9 9 9 10 10 10 9 6
3 2 2 2 2 2 2 1 1 1 1 1 1 1 1 2 2 2 2 2 2 2 2 2 2 2 2 2 2 2 2 2 1 0 1 2 3 3 3 2 2 2 3 3 3 2 2 1 1 1 1 1 1 2 3 3 3 3 3 2 2 1 1 1 1 1 2 3 3 4 4 4 4 4 5 7 7 8 8 8 8 8 9 10 10 9
3 2 2 1 1 2 2 2 2 2 2 2 2 2 2 2 2 2 2 2 2 2 2 2 2 2 3 3 2 2 2 2 1 1 1 1 2 3 3 2 2 2 2 3 3 3 3 1 1 1 1 2 2 2 2 3 3 3 3 3 2 2 1 1 1 1 2 2 3 4 4 3 3 3 4 5 5 5 5 5 5 6 6 7 8 9
3 3 3 2 2 2 2 2 2 2 2 2 2 2 2 2 2 2 2 2 2 2 2 2 2 2 3 3 3 2 3 2 2 1 1 1 2 2 3 3 2 2 1 2 2 3 4 3 2 1 1 2 2 2 2 1 2 2 3 3 3 2 1 1 1 2 2 2 3 4 4 3 3 2 3 3 3 3 3 3 3 3 3 3 4 6
3 3 3 3 3 3 2 2 2 2 3 3 3 3 3 2 2 2 2 2 2 2 1 1 2 2 3 3 3 3 3 2 2 2 1 1 1 2 2 3 3 2 2 1 2 2 3 3 2 2 2 1 1 2 2 1 1 2 2 3 3 3 3 2 2 2 2 1 2 3 3 3 3 2 2 2 2 2 2 2 2 2 2 1 1 2
3 3 3 3 2 2 2 2 2 3 3 4 3 3 2 2 2 2 2 2 2 2 2 2 2 2 3 3 3 3 3 3 2 2 2 1 1 1 2 3 3 3 2 2 1 2 3 3 2 2 2 2 1 2 2 2 2 2 2 2 2 3 4 3 2 2 1 1 1 2 3 4 4 4 3 3 2 2 2 2 2 2 2 0 1 1
4 3 3 2 2 2 2 2 3 3 3 3 3 3 2 2 2 2 2 2 2 2 3 2 2 2 3 3 2 2 2 2 2 2 2 2 1 2 2 2 2 3 3 2 2 1 2 2 2 3 3 2 1 1 2 2 2 1 1 1 2 4 5 4 2 1 1 2 2 2 3 3 4 4 4 4 3 3 2 2 3 3 3 2 1 2
3 3 2 2 2 3 3 3 3 3 3 3 2 2 2 2 2 3 3 2 2 2 2 2 2 2 2 2 3 3 3 3 3 2 2 1 1 1 2 2 2 2 3 3 2 1 0 1 1 2 2 3 2 1 2 2 2 1 1 1 1 2 3 3 3 2 2 2 3 2 2 3 3 3 3 3 3 2 2 3 4 5 4 3 2 2
3 3 3 3 3 3 3 3 2 2 3 3 3 2 2 1 2 2 3 2 2 1 1 1 2 2 3 2 3 3 3 3 3 2 2 1 2 2 2 2 2 1 2 3 3 2 1 1 1 1 1 2 2 1 2 2 2 2 1 1 1 1 2 3 3 3 3 3 3 3 2 2 2 3 3 3 3 2 2 2 2 3 3 2 2 2
3 3 3 3 3 3 3 2 2 2 3 3 3 2 2 1 2 2 3 2 2 1 1 1 1 2 2 2 2 3 3 3 2 2 2 3 3 3 3 2 1 1 1 2 3 3 2 1 1 1 1 1 1 1 2 2 2 2 2 1 1 2 3 3 3 3 3 4 4 3 2 1 1 2 2 3 3 3 2 2 2 3 2 2 1 2
3 3 3 3 3 3 3 3 3 3 3 3 2 2 2 2 2 2 2 3 2 1 0 0 1 2 1 1 1 2 2 2 2 2 2 2 3 3 2 2 1 1 1 1 1 2 2 2 2 2 2 1 0 2 3 2 2 2 2 2 1 2 3 3 3 3 3 3 3 3 2 1 1 1 2 2 3 3 3 3 3 3 3 2 2 2
4 4 3 3 3 3 3 3 3 3 3 3 2 2 2 2 2 2 2 2 2 2 1 1 2 2 2 1 1 1 0 1 2 2 2 2 2 2 2 1 1 0 1 1 1 1 2 2 3 3 2 1 1 2 2 2 2 2 2 1 1 2 2 3 3 3 2 2 2 2 2 2 2 1 2 2 3 3 3 3 3 3 3 3 2 2
4 4 4 4 3 3 3 3 3 3 3 3 2 2 2 2 2 3 2 2 2 2 2 2 2 2 2 2 2 2 2 1 1 1 2 2 2 2 2 2 1 1 0 1 1 2 2 2 2 3 3 2 2 2 2 1 1 2 1 1 1 1 2 3 3 3 2 2 2 1 1 1 1 1 2 2 3 3 3 4 3 3 3 2 2 3
4 4 4 4 4 4 3 3 3 3 3 3 3 3 2 3 3 3 3 2 2 2 2 2 2 2 1 1 1 1 1 1 1 1 1 1 1 1 2 2 1 1 1 1 1 1 1 2 3 4 4 4 3 3 2 1 1 1 1 1 1 1 2 3 3 3 2 2 1 1 0 1 1 1 0 1 2 3 4 4 4 3 3 2 2 2
4 4 4 4 4 4 4 4 4 4 4 4 4 3 3 2 2 2 2 2 2 3 3 3 3 2 2 2 1 1 1 1 1 1 1 0 0 1 1 2 2 2 2 3 3 2 2 2 1 3 6 6 6 4 2 1 1 0 0 1 1 1 2 3 3 2 2 2 1 1 0 1 0 0 1 0 2 3 3 4 4 4 3 2 2 2
4 4 4 4 4 4 4 4 4 4 4 4 4 4 4 3 2 2 2 2 2 2 3 3 3 3 3 2 2 2 2 2 1 1 1 1 1 1 1 1 2 2 2 3 3 3 3 3 3 2 3 6 8 7 4 2 1 0 1 1 1 1 1 2 2 2 2 2 2 1 1 1 0 0 1 0 1 2 3 3 4 4 3 3 2 2
Wind_Direction
97 97 78 77 91 97 80 32 62 86 83 49 32 27 25 33 39 41 39 39 35 27 20 14 12 10 7 1 357 354 350 346 342 338 336 332 324 309 277 232 203 185 172 163 154 145 138 126 111 98 84 66 50 39 33 25 17 9 1 359 7 29 62 74 74 71 70 70 67 64 60 58 58 59 62 68 73 77 80 82 85 88 90 92 94 94
107 108 103 81 95 109 117 56 55 76 91 64 40 24 22 27 28 28 28 33 31 26 16 6 5 4 360 350 347 347 344 342 338 335 332 329 324 314 295 250 214 191 178 169 159 150 141 130 120 110 99 87 71 58 49 41 34 28 24 28 38 52 66 70 71 72 73 75 75 74 72 69 66 65 64 66 68 69 72 72 73 75 77 80 83 85
137 129 132 100 101 114 134 124 67 60 75 63 48 32 29 33 30 26 20 18 16 15 12 3 358 354 351 342 340 341 340 338 335 332 328 325 320 314 302 270 227 195 182 173 163 154 146 136 128 121 116 106 90 75 64 56 50 46 45 48 56 64 70 73 75 76 78 79 80 81 81 80 79 77 74 72 71 70 69 68 68 69 71 74 77 80
134 136 142 122 109 112 132 121 93 69 60 54 45 38 33 35 33 25 17 9 1 355 352 352 349 345 343 338 336 336 337 336 334 330 324 320 316 312 305 281 240 202 184 174 166 157 148 139 132 127 122 113 101 88 78 70 63 59 57 57 60 65 72 77 81 83 85 84 84 85 85 86 86 86 84 82 80 76 73 69 67 65 66 69 73 75
53 95 129 119 115 116 121 102 92 81 66 55 44 36 30 31 26 17 11 6 358 350 343 344 340 336 336 334 331 332 335 335 334 330 324 318 314 310 303 283 245 207 186 175 166 158 150 142 135 129 124 117 107 97 89 81 75 71 66 63 63 64 68 75 81 85 88 87 87 87 87 87 87 87 87 87 84 81 77 72 67 63 61 61 62 64
38 25 23 67 107 127 131 90 82 78 71 56 44 37 31 25 18 11 6 2 357 349 337 333 327 324 324 320 325 329 333 335 336 334 329 322 317 311 303 283 245 209 186 175 166 158 150 144 137 132 127 120 112 104 96 90 85 81 77 73 70 68 68 72 76 80 83 85 86 87 87 86 86 85 85 85 84 82 79 74 69 64 59 56 54 52
70 31 17 28 46 93 102 73 70 73 75 62 50 38 28 20 12 3 351 350 347 339 328 317 309 304 310 313 323 328 331 334 337 337 335 329 323 316 306 287 250 211 185 173 164 157 151 145 140 135 129 123 115 107 100 95 91 88 85 82 79 77 75 76 77 79 81 83 85 86 87 86 85 85 84 84 84 83 82 79 74 69 62 57 52 47
103 57 12 31 56 62 60 55 62 73 80 77 69 52 25 10 359 346 325 322 328 332 328 318 310 303 308 317 325 327 327 331 336 339 338 334 328 320 309 289 249 210 182 170 162 156 150 146 141 136 130 124 116 109 103 98 94 91 89 87 85 83 82 81 81 82 83 84 85 86 86 86 85 83 82 82 82 82 83 84 82 77 73 64 57 50
126 130 121 116 104 91 74 52 55 68 80 84 93 98 69 31 6 351 340 331 328 332 342 333 326 317 310 320 327 329 328 333 338 344 347 342 334 324 313 292 248 204 177 167 159 154 149 145 141 135 130 123 117 111 105 100 96 93 91 90 89 88 87 86 86 86 87 86 86 86 85 84 82 79 77 74 73 72 72 73 73 72 71 64 58 49
128 135 136 131 108 99 98 84 70 69 77 91 116 139 126 105 72 33 8 346 334 333 354 352 339 327 318 327 335 338 336 337 343 351 359 354 344 333 322 302 246 189 168 161 155 150 147 142 138 133 127 122 117 112 107 102 99 96 94 93 93 92 91 90 90 89 89 88 87 86 84 82 79 77 74 70 67 63 60 57 55 52 51 48 43 37
133 136 133 124 103 87 98 107 96 83 79 102 125 126 107 118 111 91 41 355 337 334 338 351 355 348 335 336 339 341 341 338 343 351 360 357 350 342 332 319 223 164 156 151 148 144 141 136 132 128 124 120 117 113 109 105 101 98 97 96 96 96 95 94 93 92 90 88 86 84 83 81 78 76 74 70 67 62 58 53 47 42 39 35 30 26
147 146 135 129 118 104 97 97 91 88 95 129 143 130 92 128 126 115 92 28 343 332 326 328 344 7 5 341 336 337 341 339 340 345 356 359 356 351 340 338 53 134 140 137 135 133 131 128 125 123 120 118 117 114 111 108 105 103 101 100 100 100 99 98 96 94 92 88 85 83 80 79 77 75 73 71 68 64 60 55 48 41 35 30 24 18
147 141 129 122 121 122 121 112 106 109 137 164 165 157 150 157 131 114 111 113 139 300 303 314 318 327 359 351 342 338 335 331 330 339 1 7 3 356 345 341 11 83 117 118 117 119 122 120 119 118 118 117 116 115 114 112 111 109 108 107 106 106 105 103 101 98 95 91 88 84 81 78 75 73 71 69 66 64 60 55 49 42 35 28 21 13
143 129 118 115 120 128 132 129 133 145 168 170 160 148 143 127 105 92 94 93 243 264 270 295 294 294 321 355 356 346 331 323 325 342 10 15 8 357 342 338 360 45 84 95 99 103 109 112 113 114 115 116 116 117 117 117 117 117 117 116 116 115 114 111 109 105 102 98 93 89 84 81 77 72 69 66 64 61 59 54 49 42 34 27 19 12
152 136 123 124 129 137 140 137 141 148 158 152 137 119 103 84 79 80 83 40 319 312 336 321 306 300 321 353 357 351 342 335 342 357 10 11 6 359 346 343 0 29 56 75 82 84 89 96 103 109 112 116 118 119 121 122 124 124 124 124 124 124 122 120 117 114 111 107 103 99 95 90 85 79 74 68 65 61 58 53 48 41 33 26 19 12
154 137 129 132 137 143 146 138 139 140 141 132 118 106 98 94 92 96 107 133 307 339 4 355 349 343 341 46 33 16 0 355 358 4 5 5 3 0 355 357 12 27 37 50 55 56 61 74 88 101 110 118 122 123 124 127 128 130 130 130 130 129 128 126 125 123 121 119 116 113 111 108 104 98 90 81 72 65 59 53 46 39 31 24 18 12
145 134 130 133 138 142 139 128 127 129 129 118 106 100 106 117 124 132 141 159 161 93 54 53 28 359 328 349 24 26 14 5 360 359 3 360 358 357 357 10 24 30 25 32 31 31 36 55 73 93 112 124 126 127 128 131 133 134 135 135 135 135 134 134 134 134 134 134 133 133 133 133 132 127 118 106 90 74 61 50 40 32 24 17 12 8
144 139 136 137 139 140 133 122 119 117 115 111 106 101 99 111 125 139 154 161 158 146 131 116 121 138 306 320 340 360 12 3 354 354 8 359 353 352 355 11 30 37 28 24 16 10 10 20 35 86 122 132 134 134 135 138 140 142 143 143 144 145 146 147 148 150 152 153 155 156 159 162 164 164 160 150 130 95 59 36 21 12 6 2 359 357
150 147 142 141 138 133 126 126 126 126 125 131 129 123 112 117 127 143 163 167 163 156 150 145 155 182 213 263 301 337 3 344 342 1 22 357 348 349 353 2 21 36 34 21 10 3 357 352 356 12 103 139 145 147 148 151 154 156 157 159 161 163 166 168 171 174 177 178 180 182 184 189 195 200 204 208 214 232 275 312 326 331 334 336 338 341
150 149 147 140 131 122 116 122 132 140 144 144 139 134 136 143 149 158 170 171 163 152 142 147 167 196 210 246 304 338 351 338 348 27 41 352 344 349 357 358 10 25 29 9 360 357 356 351 349 348 347 153 162 166 170 173 177 180 182 185 187 190 193 196 199 201 202 202 202 203 203 207 212 218 226 232 240 252 264 279 291 301 308 314 320 324
145 149 155 137 127 123 125 132 139 143 143 137 132 131 142 148 158 170 177 165 152 140 134 153 176 191 181 229 319 339 347 348 3 44 61 9 354 355 359 357 3 9 4 348 353 360 357 356 351 346 341 338 278 203 197 200 204 208 211 212 214 215 216 217 218 219 218 217 216 215 215 217 220 225 231 237 245 253 262 271 280 288 296 302 307 312
141 143 139 122 119 123 131 136 141 142 139 135 138 144 157 160 166 172 172 156 149 151 158 168 167 149 121 130 320 328 339 340 350 62 83 30 1 350 352 349 354 356 337 329 337 348 352 354 350 346 346 347 341 322 278 246 234 232 234 233 231 229 229 227 227 227 226 225 224 223 222 222 224 226 231 236 243 250 257 265 273 281 288 294 300 305
128 128 125 115 112 116 123 130 134 138 137 141 150 160 167 166 168 168 164 155 149 148 148 134 109 88 77 61 330 324 331 321 303 187 102 85 348 331 342 344 351 347 312 321 332 340 340 341 344 349 352 353 350 344 335 317 298 283 271 263 257 251 244 238 234 232 231 230 230 229 229 228 228 229 231 234 239 245 251 259 266 274 282 288 294 298
114 117 120 117 115 114 118 126 131 136 135 138 142 145 145 140 134 128 125 124 123 120 114 92 75 61 46 29 340 331 330 322 309 265 119 130 155 321 339 349 349 336 301 312 329 334 329 325 334 353 3 0 357 352 346 338 329 319 310 304 297 289 281 268 255 246 239 237 236 235 235 234 233 233 232 234 236 241 246 253 260 268 275 281 287 292
112 115 118 120 120 121 123 131 137 141 140 133 127 121 115 105 99 93 88 89 93 96 93 80 67 46 11 358 336 322 316 319 317 319 126 132 142 319 343 356 355 333 298 302 319 336 330 320 329 355 18 11 7 1 354 345 337 329 323 319 315 313 311 304 293 279 266 255 248 244 242 240 239 237 236 236 236 239 243 249 255 262 269 274 280 285
112 115 119 122 124 126 130 136 141 144 144 139 134 128 120 112 104 96 85 84 90 95 95 85 68 5 326 324 310 300 301 317 327 351 122 127 129 107 350 360 360 331 295 298 313 335 338 322 332 359 24 15 7 2 358 350 342 334 326 321 319 317 317 316 315 310 302 289 277 266 257 249 245 241 239 237 237 238 241 246 252 258 263 269 275 283
113 116 120 124 128 131 135 138 140 141 141 139 138 136 130 121 112 106 102 109 109 108 108 113 124 283 305 305 292 287 293 314 326 334 5 114 113 94 346 346 339 320 294 292 300 318 336 332 339 354 11 7 2 360 359 355 349 342 333 327 322 319 317 317 317 317 314 312 307 298 286 271 259 249 242 239 237 237 240 244 250 256 261 266 275 290
114 118 122 127 131 134 136 137 137 137 137 137 138 137 133 123 119 125 143 137 120 111 117 132 154 194 241 256 265 275 290 309 316 316 313 80 93 89 329 331 334 325 298 291 299 321 351 345 340 340 341 345 352 358 359 359 356 352 346 339 333 328 323 320 318 317 317 317 317 316 313 303 287 270 253 244 239 237 239 243 249 255 262 265 282 29
103 105 108 111 114 116 118 121 125 127 126 128 130 131 129 123 130 141 154 135 119 112 122 142 160 178 199 228 258 284 310 319 314 310 311 74 86 81 335 342 346 345 325 315 324 339 353 342 331 320 316 331 347 358 358 0 0 358 354 350 347 343 338 332 327 324 321 321 322 325 326 324 317 306 287 266 252 243 241 243 246 251 257 230 101 87
82 82 79 77 79 81 81 84 94 102 105 105 106 107 106 108 121 133 136 125 120 121 133 150 165 172 176 181 325 341 336 317 308 306 47 91 87 38 352 358 355 351 354 12 5 352 339 330 321 316 316 332 343 352 353 358 360 359 354 353 357 360 360 355 349 343 338 334 333 332 333 334 333 330 321 306 288 269 255 249 247 242 164 115 108 111
80 77 67 58 57 59 62 64 69 75 81 81 79 77 76 82 96 111 120 123 125 129 139 154 166 171 167 145 128 125 286 287 289 296 97 100 104 113 70 29 360 345 351 62 66 29 328 320 322 329 339 342 344 348 353 360 2 359 352 355 5 12 15 11 6 360 355 349 345 341 339 339 338 336 333 328 319 305 287 273 262 245 142 135 142 175
91 86 79 66 59 58 61 62 62 63 64 62 59 57 59 65 75 91 109 122 127 131 136 147 156 162 162 151 152 167 214 260 266 257 102 103 106 121 127 101 52 355 339 65 106 126 169 293 310 323 339 340 338 340 346 360 5 4 356 0 3 8 12 11 9 6 1 356 352 349 346 344 341 338 335 331 325 318 309 298 288 274 170 158 174 201
94 85 75 68 63 62 60 60 61 62 63 58 53 50 50 54 61 70 82 101 119 128 134 139 144 147 146 138 147 170 215 258 264 249 105 105 109 116 112 97 79 38 3 31 69 104 133 219 291 312 324 325 324 326 333 352 4 9 4 3 357 352 356 2 3 0 355 354 352 352 352 350 346 342 337 332 326 320 314 307 301 294 269 189 185 202
92 86 76 69 65 62 57 55 57 60 62 60 55 52 49 51 54 57 61 63 86 117 134 140 143 145 143 136 141 218 269 275 285 306 91 105 114 121 111 101 97 85 52 37 42 55 84 89 324 318 317 316 315 315 322 336 351 0 3 7 357 346 344 350 352 350 345 348 348 349 352 350 348 344 340 335 328 321 314 308 302 295 284 253 210 197
92 85 78 73 72 70 65 60 59 60 62 59 54 50 49 51 53 54 53 49 53 71 105 128 139 144 145 144 148 182 260 264 276 312 94 111 120 123 113 123 132 123 95 74 59 56 61 43 11 340 328 321 315 311 313 316 324 333 342 18 16 349 337 343 343 343 342 344 344 342 343 343 343 341 338 333 328 322 316 308 300 293 286 272 253 223
102 97 88 84 88 93 91 84 78 77 76 64 52 45 47 50 52 51 48 43 46 53 62 69 92 121 139 144 150 163 200 229 247 252 99 118 125 127 126 154 154 138 117 109 100 93 86 39 6 1 5 329 312 308 312 317 328 338 347 1 7 357 336 342 345 347 349 346 342 336 334 336 335 333 329 329 327 324 319 312 304 296 289 280 270 255
122 124 120 109 111 118 123 121 125 133 143 131 94 66 62 58 57 56 50 41 43 50 60 54 52 57 77 115 136 151 171 184 189 81 87 116 122 123 128 152 157 145 131 132 131 125 107 67 9 354 9 263 270 289 309 326 339 346 345 342 340 339 340 349 1 10 7 347 335 327 326 330 331 330 327 328 329 328 324 317 311 303 296 289 282 272
142 150 156 150 145 143 145 155 171 180 177 160 138 118 100 84 74 68 61 49 48 54 65 61 55 50 47 58 76 103 123 115 103 90 84 106 114 117 123 135 146 149 141 144 142 137 124 111 55 334 306 268 263 272 296 322 333 331 321 318 316 316 322 342 11 25 15 343 328 323 326 334 339 336 329 332 336 338 331 325 318 313 307 301 294 286
163 171 177 176 172 167 165 176 183 180 160 138 126 118 110 96 82 73 67 61 56 54 55 60 59 52 44 45 55 69 80 86 92 95 83 90 106 117 124 133 142 148 131 131 132 132 131 136 149 185 243 274 284 289 301 310 308 308 310 317 320 321 319 345 15 21 14 351 336 330 330 337 341 340 330 333 339 341 332 323 322 325 333 334 314 300
178 183 187 184 179 175 175 175 164 144 126 117 112 109 106 96 82 68 60 61 58 53 46 51 58 59 53 46 44 44 49 52 66 78 72 58 78 110 126 136 141 143 132 114 116 125 131 141 157 174 186 214 263 288 299 291 282 294 330 335 329 321 320 333 352 10 21 12 348 333 326 326 328 329 326 326 325 319 305 301 307 319 339 1 345 317
184 189 192 183 173 162 145 116 109 113 117 117 113 110 108 104 95 78 56 43 34 27 20 35 46 51 45 40 35 34 35 32 38 52 72 53 50 72 112 128 132 133 132 119 111 120 133 142 157 174 185 191 220 257 271 268 272 289 329 313 295 291 299 312 332 1 13 5 344 330 325 327 328 327 321 313 296 273 253 260 274 286 298 265 174 172
188 190 183 162 144 130 111 94 96 103 110 113 117 122 129 126 119 108 88 56 27 11 7 17 27 32 26 16 11 11 20 15 20 38 77 80 68 61 76 105 122 129 127 116 108 110 134 147 162 175 183 176 187 245 269 268 269 270 268 267 287 300 305 306 319 356 4 341 329 327 335 331 328 322 315 308 294 277 261 252 255 262 268 248 205 184
184 173 144 125 120 121 118 111 110 111 113 114 122 129 127 119 116 111 102 87 58 27 13 20 35 43 36 10 351 343 343 343 351 10 62 101 102 81 65 77 101 120 124 120 117 120 148 166 179 183 177 158 158 196 262 279 286 280 238 232 328 348 327 312 315 331 345 330 325 325 329 323 312 303 298 293 288 283 278 269 265 264 263 251 228 210
148 120 103 105 108 111 111 118 126 134 135 136 134 127 104 96 95 97 96 92 82 61 27 31 49 55 48 16 348 333 323 327 338 360 25 84 113 115 96 80 72 82 110 123 130 136 132 181 212 205 162 141 147 180 240 269 282 283 262 213 179 190 245 279 300 319 326 320 318 316 314 312 306 300 296 291 290 289 290 287 284 280 271 255 232 221
117 107 104 111 117 122 129 141 146 145 143 140 133 124 112 102 96 97 100 99 90 71 38 71 73 64 45 8 343 332 325 327 334 352 13 41 60 77 98 103 96 79 86 119 133 139 142 170 194 186 110 120 152 195 230 254 273 282 280 249 224 224 238 261 281 296 302 305 305 304 306 318 328 327 320 311 307 302 297 293 291 289 283 272 251 234
119 120 124 127 135 144 152 150 145 140 136 132 126 121 118 107 96 94 101 104 104 106 209 131 101 93 83 13 339 337 338 333 332 337 357 16 21 27 49 82 111 128 127 128 136 144 153 160 156 146 125 120 199 227 225 228 247 274 289 294 292 285 281 281 277 273 274 287 292 297 311 355 17 1 327 312 306 302 295 285 277 274 276 273 263 249
139 140 141 142 144 146 144 138 136 137 140 137 131 125 125 115 102 94 91 100 111 121 137 112 108 117 138 167 185 188 280 320 317 318 325 346 359 0 358 5 10 177 174 180 190 194 196 173 157 148 139 139 274 272 250 217 210 229 263 287 307 311 300 289 277 266 259 268 278 294 332 11 18 360 316 306 304 302 299 291 278 266 261 262 260 257
153 152 151 149 146 143 139 140 143 146 149 144 138 134 142 146 133 118 105 110 120 126 127 114 115 127 151 177 187 184 173 189 260 294 306 322 334 344 347 339 330 313 283 248 246 241 232 213 194 183 176 184 222 257 272 233 199 199 224 244 273 284 281 280 277 272 263 262 268 286 349 7 343 314 306 311 310 306 303 300 293 281 264 254 252 253
157 156 154 152 151 150 152 154 156 157 157 151 144 141 152 161 147 133 127 134 137 138 136 135 139 147 164 194 201 195 180 182 210 253 276 300 322 334 340 340 345 355 13 1 344 321 293 246 224 216 210 202 206 224 257 247 213 195 208 218 231 249 264 274 280 284 284 281 280 279 210 215 218 222 232 305 302 299 299 301 299 294 283 269 256 252
158 156 155 156 157 159 160 161 163 163 163 156 151 149 150 153 142 129 127 138 147 152 153 152 154 159 173 191 199 194 185 186 213 245 256 253 350 9 353 353 360 10 18 13 9 5 0 344 270 230 219 210 207 210 227 238 244 252 263 244 230 228 249 269 278 286 298 303 306 299 271 249 222 166 127 243 286 291 297 301 300 297 295 295 286 274
160 159 158 160 162 164 163 164 166 167 166 161 156 152 149 149 146 139 133 144 157 164 164 157 156 160 172 181 187 187 183 181 196 223 239 173 128 101 50 25 28 33 36 24 17 12 10 2 348 313 248 214 207 204 197 189 175 9 314 279 256 235 240 260 271 284 302 309 312 313 318 316 339 97 119 145 285 297 303 303 299 297 297 305 308 300